Date String (YYYY-MM-DD hh:mm:ss) UTC,Instrument flags,Ambient pressure (hPa),Sample flow (lpm),Bypass flow (lpm),Sample temperature (°C),Ambient temperature (°C),ASC tube jacket temperature (°C),LED temperature (°C),Box temperature (°C),Sample RH (%),Span deviation,Mass concentration (μg/m³),Mass concentration (μg/m³),Mass concentration (μg/m³)
DateTimeUTC,F1_M11,P_M11,Q1_M11,Q2_M11,T1_M11,T2_M11,T3_M11,T4_M11,T5_M11,U1_M11,ZSPAN_M11,X0_M11,X2_M11,X1_M11
2023-01-19 05:00:00,,0818.7,5.00,0.00,22.0,22.2,00.0,30.6,23.9,12.8,0000.0,0009.99,0007.11,0006.81
2023-01-19 05:01:00,,0818.8,4.98,0.00,22.1,22.5,00.0,30.6,24.1,12.8,0000.0,0009.94,0007.08,0006.78
2023-01-19 05:02:00,,0818.7,4.99,0.00,22.1,22.1,00.0,30.7,24.1,12.8,0000.0,0009.88,0007.04,0006.74
2023-01-19 05:03:00,,0818.7,5.00,0.00,22.1,21.7,00.0,30.7,24.0,12.9,0000.0,0009.83,0006.99,0006.68
2023-01-19 05:04:00,,0818.7,5.00,0.00,22.1,21.3,00.0,30.7,23.9,12.9,0000.0,0009.81,0006.95,0006.63
2023-01-19 05:05:00,,0818.6,5.00,0.00,22.1,21.1,00.0,30.7,23.9,12.9,0000.7,0009.73,0006.88,0006.56
2023-01-19 05:06:00,,0818.7,5.02,0.00,22.1,20.9,00.0,30.8,23.8,13.0,0001.6,0009.60,0006.80,0006.49
2023-01-19 05:07:00,,0818.7,5.00,0.00,22.1,20.8,00.0,30.8,23.8,13.0,0000.0,0009.51,0006.73,0006.44
2023-01-19 05:08:00,,0818.7,5.01,0.00,22.1,20.7,00.0,30.8,23.8,12.9,0000.9,0009.46,0006.66,0006.37
2023-01-19 05:09:00,,0818.8,5.00,0.00,22.0,20.6,00.0,30.8,23.8,13.0,0003.1,0009.47,0006.62,0006.32
2023-01-19 05:10:00,,0818.7,5.00,0.00,22.0,20.5,00.0,30.8,23.7,12.8,0003.4,0009.47,0006.56,0006.24
2023-01-19 05:11:00,,0818.7,4.99,0.00,22.0,20.4,00.0,30.8,23.7,12.8,0001.5,0009.43,0006.48,0006.12
2023-01-19 05:12:00,,0818.7,5.01,0.00,22.0,20.4,00.0,30.8,23.7,12.8,0000.1,0009.37,0006.39,0006.02
2023-01-19 05:13:00,,0818.7,5.00,0.00,22.0,20.3,00.0,30.7,23.7,12.8,0000.8,0009.30,0006.32,0005.94
2023-01-19 05:14:00,,0818.7,4.99,0.00,22.0,20.3,00.0,30.7,23.6,12.8,0000.0,0009.23,0006.25,0005.87
2023-01-19 05:15:00,,0818.7,5.00,0.00,21.9,20.3,00.0,30.7,23.6,12.8,0000.0,0009.03,0006.13,0005.77
2023-01-19 05:16:00,,0818.6,5.00,0.00,22.0,20.8,00.0,30.7,23.7,12.8,0000.0,0008.86,0006.02,0005.70
2023-01-19 05:17:00,,0818.5,5.00,0.00,22.0,21.8,00.0,30.7,23.9,12.8,0000.0,0008.79,0005.96,0005.62
2023-01-19 05:18:00,,0818.6,4.99,0.00,22.2,22.6,00.0,30.7,24.1,12.6,0000.0,0008.69,0005.86,0005.51
2023-01-19 05:19:00,,0818.7,4.99,0.00,22.2,22.5,00.0,30.8,24.2,12.5,0000.0,0008.55,0005.75,0005.40
2023-01-19 05:20:00,,0818.7,4.99,0.00,22.3,22.1,00.0,30.8,24.2,12.5,0000.0,0008.35,0005.65,0005.32
2023-01-19 05:21:00,,0818.7,5.01,0.00,22.3,21.7,00.0,30.9,24.1,12.5,0000.0,0008.34,0005.60,0005.28
2023-01-19 05:22:00,,0818.7,4.99,0.00,22.3,21.4,00.0,30.9,24.0,12.5,0000.0,0008.38,0005.63,0005.30
2023-01-19 05:23:00,,0818.7,4.99,0.00,22.2,21.2,00.0,30.9,24.0,12.6,0000.0,0008.48,0005.69,0005.34
2023-01-19 05:24:00,,0818.7,5.00,0.00,22.2,21.0,00.0,30.9,24.0,12.7,0000.0,0008.77,0005.74,0005.40
2023-01-19 05:25:00,,0818.7,5.00,0.00,22.2,20.8,00.0,30.9,23.9,12.7,0000.0,0008.97,0005.77,0005.44
2023-01-19 05:26:00,,0818.7,5.00,0.00,22.2,20.7,00.0,30.9,23.9,12.8,0000.0,0009.01,0005.82,0005.49
2023-01-19 05:27:00,,0818.7,5.01,0.00,22.2,20.6,00.0,30.9,23.9,12.8,0000.0,0009.17,0005.94,0005.59
2023-01-19 05:28:00,,0818.7,5.01,0.00,22.2,20.6,00.0,30.9,23.8,12.8,0000.0,0009.39,0006.05,0005.68
2023-01-19 05:29:00,,0818.6,4.99,0.00,22.1,20.5,00.0,30.9,23.8,12.8,0000.0,0009.45,0006.10,0005.73
2023-01-19 05:30:00,,0818.7,5.02,0.00,22.1,20.5,00.0,30.9,23.8,12.8,0000.0,0009.68,0006.25,0005.87
2023-01-19 05:31:00,,0818.7,5.00,0.00,22.1,20.5,00.0,30.9,23.8,12.9,0003.3,0009.91,0006.37,0005.98
2023-01-19 05:32:00,,0818.7,4.99,0.00,22.1,20.4,00.0,30.9,23.7,12.9,0001.7,0009.99,0006.50,0006.10
2023-01-19 05:33:00,,0818.6,5.00,0.00,22.1,20.4,00.0,30.9,23.7,13.0,0000.2,0010.07,0006.53,0006.13
2023-01-19 05:34:00,,0818.7,4.99,0.00,22.1,20.8,00.0,30.9,23.8,13.0,-000.7,0010.18,0006.47,0006.08
2023-01-19 05:35:00,,0818.6,5.00,0.00,22.1,21.7,00.0,30.8,24.0,13.1,-001.2,0010.01,0006.46,0006.07
2023-01-19 05:36:00,,0818.7,5.00,0.00,22.2,22.6,00.0,30.9,24.2,13.0,-000.6,0009.91,0006.47,0006.08
2023-01-19 05:37:00,,0818.7,5.00,0.00,22.3,22.7,00.0,30.9,24.3,12.9,-000.0,0009.96,0006.49,0006.09
2023-01-19 05:38:00,,0818.7,5.01,0.00,22.4,22.2,00.0,31.0,24.3,12.9,0000.6,0009.85,0006.39,0006.00
2023-01-19 05:39:00,,0818.7,4.99,0.00,22.4,21.8,00.0,31.0,24.2,13.0,0000.7,0009.69,0006.31,0005.90
2023-01-19 05:40:00,,0818.6,5.01,0.00,22.3,21.5,00.0,31.0,24.1,13.0,0000.8,0009.73,0006.32,0005.90
2023-01-19 05:41:00,,0818.6,5.01,0.00,22.3,21.3,00.0,31.0,24.1,13.1,0001.1,0009.65,0006.27,0005.84
2023-01-19 05:42:00,,0818.6,5.00,0.00,22.3,21.1,00.0,31.0,24.1,13.0,0001.9,0009.87,0006.24,0005.79
2023-01-19 05:43:00,,0818.6,5.01,0.00,22.3,20.9,00.0,31.0,24.0,13.0,0000.9,0010.01,0006.17,0005.70
2023-01-19 05:44:00,,0818.5,5.00,0.00,22.3,20.8,00.0,31.0,24.0,13.0,0000.0,0009.93,0006.17,0005.71
2023-01-19 05:45:00,,0818.6,5.00,0.00,22.3,20.8,00.0,31.0,24.0,13.0,0000.0,0009.80,0006.23,0005.76
2023-01-19 05:46:00,,0818.6,5.01,0.00,22.3,20.7,00.0,31.0,24.0,12.9,0000.0,0009.75,0006.23,0005.76
2023-01-19 05:47:00,,0818.6,5.01,0.00,22.2,20.7,00.0,31.0,24.0,12.9,0000.0,0009.69,0006.20,0005.73
2023-01-19 05:48:00,,0818.6,4.99,0.00,22.2,20.7,00.0,31.0,23.9,12.8,0000.0,0009.72,0006.23,0005.74
2023-01-19 05:49:00,,0818.6,5.00,0.00,22.2,20.6,00.0,31.0,23.9,12.8,0000.0,0009.82,0006.30,0005.80
2023-01-19 05:50:00,,0818.7,5.00,0.00,22.2,20.6,00.0,31.0,23.9,12.7,0000.0,0009.89,0006.36,0005.87
2023-01-19 05:51:00,,0818.7,4.99,0.00,22.2,20.6,00.0,31.0,23.9,12.7,0000.0,0009.91,0006.37,0005.88
2023-01-19 05:52:00,,0818.7,5.01,0.00,22.1,20.6,00.0,31.0,23.9,12.6,0000.0,0009.89,0006.38,0005.89
2023-01-19 05:53:00,,0818.6,5.00,0.00,22.2,21.2,00.0,30.9,24.0,12.6,0000.0,0009.59,0006.33,0005.88
2023-01-19 05:54:00,,0818.7,5.00,0.00,22.3,22.2,00.0,30.9,24.2,12.5,0000.0,0009.36,0006.35,0005.90
2023-01-19 05:55:00,,0818.7,4.99,0.00,22.4,22.8,00.0,31.0,24.4,12.5,0000.0,0009.39,0006.38,0005.92
2023-01-19 05:56:00,,0818.7,4.99,0.00,22.4,22.6,00.0,31.0,24.4,12.4,0000.0,0009.36,0006.36,0005.92
2023-01-19 05:57:00,,0818.6,4.99,0.00,22.5,22.2,00.0,31.1,24.4,12.4,0000.0,0010.06,0006.36,0005.92
2023-01-19 05:58:00,,0818.6,5.01,0.00,22.4,21.8,00.0,31.1,24.3,12.3,0000.0,0010.22,0006.40,0005.95
2023-01-19 05:59:00,,0818.6,5.00,0.00,22.4,21.5,00.0,31.1,24.2,12.3,0000.0,0010.25,0006.40,0005.96
